DELTA 1 DEB, 720

Orbit data source: Space-Track

DELTA 1 DEB, 720 is space debris in LEO originally from a launch on Sat, 21 Dec 1963 UTC launched from the Air Force Western Test Range (AFWTR). Debris objects in space refer to the collection of defunct objects orbiting the Earth. Examples of debris include non-operational satellites, rocket bodies, and fragments generated from explosions, collisions, or faulty payload assembly.

Loading next visibility...
Identifier
720, 1963-054C
Orbit
LEO
Country
Flag of USUS
Related business
Manufacturer
Unknown
Mission
Spacecraft
Bus & Motor
Unknown
Mass
~1 kg wet, ~1 kg dry
Launch date (UTC)
1963-12-21 (62 years ago)
Launch vehicle
Unknown
Launch site
Air Force Western Test Range (AFWTR)
Object type
Payload
Rocket body
Debris
Shape & HBR
Unknown
Radar Cross Section
Small (<0.1 m²)

Expand to show TLE details & history
Last TLE update: 1 day ago

TLE from 1 day ago
0 DELTA 1 DEB
1 00720U 63054C   26135.29138501  .00000026  00000-0  47252-4 0  9995
2 00720  58.4713 247.2696 0108180  19.1045 341.3993 14.50641567276717
Epoch: 2026-05-15T06:59Z
TLE epoch observation values (Epoch: 2026-05-15T06:59:35.664Z)
Latitude
-0.00001°
Longitude
-90.65382°
Altitude
652.225 km
Speed
7.571 km/s
True Right ascension
16h 29m 04s
True Declination
0° 00' 00"
Sunlit
Object was in full shadow at epoch
Visualization orbit readout
Latitude
Unknown
Longitude
Unknown
Altitude
Unknown
Speed
Unknown
Apparent Right ascension
Unknown
Apparent Declination
Unknown
Sunlit
N/A
Visualization observer readout
Local Sidereal Time
20:06:32
Azimuth
Unknown
Elevation
Unknown
Doppler factor
Unknown
Orbital elements
Apogee altitude
799.821 km
Perigee altitude
646.181 km
Semi-major axis
7,101.138 km
Eccentricity
0.01082
Inclination
58.4713°
RAAN
247.2696°
Arg. of periapsis
19.1045°
True anomaly
340.99876°
Mean anomaly
341.3993°
Eccentric anomaly
341.19955°
Mean motion
3.62703 °/min
Orbital period
99.25 mins
BSTAR
0.000047252
Loading maneuver chart data...
Computing Atmospheric mass density...
Loading historical data...
Loading historical data...
Loading historical data...
Loading historical data...
Loading historical data...
Loading historical data...
Loading historical data...
Other satellites on launch #54 in the year 1963 (1963-12-21 UTC)

Documentation

Showing up to 5 results
|